Air Resources Laboratory banner image
Air Resources Laboratory web site National Oceanic and Atmospheric Administration (NOAA)

tn roundup


Office: MEG

ASUS44 KMEG 110400
RWRTN
TENNESSEE HOURLY STATE WEATHER ROUNDUP
NATIONAL WEATHER SERVICE MEMPHIS TN
1100 PM CDT WED AUG 10 2022

TNZ002-004-019-021-049-052-054-088>092-110500-
WEST TENNESSEE

CITY           SKY/WX    TMP DP  RH WIND       PRES   REMARKS
MEMPHIS INTL   MOCLDY    78  74  87 CALM      30.08S
NWS MEMPHIS      N/A     75 N/A N/A MISG        N/A
JACKSON        MOCLDY    73  72  96 CALM      30.09S
DYERSBURG      PTCLDY    73  32  22 NE5       30.09F
SOMERVILLE     CLOUDY    75  75 100 CALM      30.07S FOG
COVINGTON      CLEAR     73  73 100 CALM      30.08S
UNION CITY     CLOUDY    75  75 100 CALM      30.08F
BOLIVAR        CLOUDY    75  73  94 CALM      30.07F
PARIS          MOCLDY    72  72 100 CALM      30.09F
HUNTINGDON     CLEAR     72  72 100 CALM      30.08F
LEXINGTON      PTCLDY    73  72  94 CALM      30.09S
SELMER         PTCLDY    73  72  94 CALM      30.09S
SAVANNAH       MOCLDY    73  73 100 CALM      30.08S
$$

TNZ008-025-027-028-033-062-065-066-110500-
NORTH MIDDLE TENNESSEE

CITY           SKY/WX    TMP DP  RH WIND       PRES   REMARKS
NASHVILLE      MOCLDY    74  70  87 S6        30.11F
DICKSON        CLOUDY    72  72 100 SE3       30.10F FOG
PORTLAND       CLOUDY    73  73 100 S6        30.10F
CLARKSVILLE    MOCLDY    74  71  91 CALM      30.10S
LEBANON        CLEAR     73  72  94 S3        30.08F
SMYRNA         MOCLDY    73  72  96 SE3       30.12F
MURFREESBORO   PTCLDY    73  72  94 CALM      30.09F
COOKEVILLE     FOG       68  68 100 CALM      30.12F VSB 1/2
LIVINGSTON     CLEAR     70  68  94 CALM      30.13S
CROSSVILLE     NOT AVBL
$$

TNZ061-075-076-078-094-096-097-110500-
SOUTH MIDDLE TENNESSEE

CITY           SKY/WX    TMP DP  RH WIND       PRES   REMARKS
LAWRENCEBURG   MOCLDY    73  72  94 CALM      30.11S
LEWISBURG      CLOUDY    72  72 100 CALM      30.10S
FAYETTEVILLE   PTCLDY    72  72 100 SE5       30.14S
TULLAHOMA      CLOUDY    72  70  94 S6        30.12F
WINCHESTER     CLOUDY    73  73 100 CALM      30.13S
MCMINNVILLE    CLEAR     70  70 100 CALM      30.12S FOG
SHELBYVILLE    CLEAR     72  72 100 E3        30.11F
$$

TNZ017-018-042-046-047-110500-
NORTHEAST TENNESSEE

CITY           SKY/WX    TMP DP  RH WIND       PRES   REMARKS
TRI CITIES     CLOUDY    72  68  87 CALM      30.17F
ELIZABETHTON   CLOUDY    70  68  94 CALM      30.18S
GREENEVILLE    MOCLDY    70  68  94 CALM      30.17S
$$

TNZ012-013-036-069-073-074-110500-
CENTRAL EAST TENNESSEE

CITY           SKY/WX    TMP DP  RH WIND       PRES   REMARKS
KNOXVILLE      PTCLDY    73  71  93 W3        30.13F
OAK RIDGE      PTCLDY    72  70  93 CALM      30.15F
DOWNTOWN KNOXV   N/A     72  70  94 CALM      30.13F
GATLINBURG     CLOUDY    72  72 100 CALM      30.14F FOG
MORRISTOWN     CLOUDY    70  70 100 CALM      30.15S
JACKSBORO      CLOUDY    70  70 100 CALM      30.19S
$$

TNZ083-085-099-110500-
SOUTHEAST TENNESSEE

CITY           SKY/WX    TMP DP  RH WIND       PRES   REMARKS
CHATTANOOGA    MOCLDY    76  73  91 S3        30.13F
DAYTON         MOCLDY    72  72 100 CALM      30.12F
$$

SKY/WX REPORTED AS FAIR MEANS FEW OR NO CLOUDS BELOW
12 THOUSAND FEET.



ASUS44 KMEG 110410
RWRTN
TENNESSEE HOURLY STATE WEATHER ROUNDUP
NATIONAL WEATHER SERVICE MEMPHIS TN
1100 PM CDT WED AUG 10 2022

TNZ002-004-019-021-049-052-054-088>092-110500-
WEST TENNESSEE

CITY           SKY/WX    TMP DP  RH WIND       PRES   REMARKS
MEMPHIS INTL   MOCLDY    78  74  87 CALM      30.08S
NWS MEMPHIS      N/A     75 N/A N/A MISG        N/A
JACKSON        PTCLDY    73  72  96 CALM      30.09S
DYERSBURG      CLEAR     73  32  22 NE5       30.09F
SOMERVILLE     CLOUDY    75  75 100 CALM      30.07S FOG
COVINGTON      CLEAR     73  73 100 CALM      30.08S
UNION CITY     CLOUDY    75  75 100 CALM      30.08F
BOLIVAR        CLOUDY    75  73  94 CALM      30.07F
PARIS          MOCLDY    72  72 100 CALM      30.09F
HUNTINGDON     CLEAR     72  72 100 CALM      30.08F
LEXINGTON      PTCLDY    73  72  94 CALM      30.09S
SELMER         PTCLDY    73  72  94 CALM      30.09S
SAVANNAH       MOCLDY    73  73 100 CALM      30.08S
$$

TNZ008-025-027-028-033-062-065-066-110500-
NORTH MIDDLE TENNESSEE

CITY           SKY/WX    TMP DP  RH WIND       PRES   REMARKS
NASHVILLE      MOCLDY    74  70  87 S6        30.11F
DICKSON        CLOUDY    72  72 100 SE3       30.10F FOG
PORTLAND       CLOUDY    73  73 100 S6        30.10F
CLARKSVILLE    MOCLDY    74  71  91 CALM      30.10S
LEBANON        CLEAR     73  72  94 S3        30.08F
SMYRNA         PTCLDY    73  72  96 SE3       30.12F
MURFREESBORO   PTCLDY    73  72  94 CALM      30.09F
COOKEVILLE     FOG       68  68 100 CALM      30.12F VSB 1/2
LIVINGSTON     CLEAR     70  68  94 CALM      30.13S
CROSSVILLE     PTCLDY    67  67 100 CALM      30.17F
$$

TNZ061-075-076-078-094-096-097-110500-
SOUTH MIDDLE TENNESSEE

CITY           SKY/WX    TMP DP  RH WIND       PRES   REMARKS
LAWRENCEBURG   MOCLDY    73  72  94 CALM      30.11S
LEWISBURG      CLOUDY    72  72 100 CALM      30.10S
FAYETTEVILLE   PTCLDY    72  72 100 SE5       30.14S
TULLAHOMA      CLOUDY    72  70  94 S6        30.12F
WINCHESTER     CLOUDY    73  73 100 CALM      30.13S
MCMINNVILLE    CLEAR     70  70 100 CALM      30.12S FOG
SHELBYVILLE    CLEAR     72  72 100 E3        30.11F
$$

TNZ017-018-042-046-047-110500-
NORTHEAST TENNESSEE

CITY           SKY/WX    TMP DP  RH WIND       PRES   REMARKS
TRI CITIES     CLOUDY    72  68  87 CALM      30.17F
ELIZABETHTON   CLOUDY    70  68  94 CALM      30.18S
GREENEVILLE    MOCLDY    70  68  94 CALM      30.17S
$$

TNZ012-013-036-069-073-074-110500-
CENTRAL EAST TENNESSEE

CITY           SKY/WX    TMP DP  RH WIND       PRES   REMARKS
KNOXVILLE      PTCLDY    73  71  93 W3        30.13F
OAK RIDGE      PTCLDY    72  70  93 CALM      30.15F
DOWNTOWN KNOXV   N/A     72  70  94 CALM      30.13F
GATLINBURG     CLOUDY    72  72 100 CALM      30.14F FOG
MORRISTOWN     CLOUDY    70  70 100 CALM      30.15S
JACKSBORO      CLOUDY    70  70 100 CALM      30.19S
$$

TNZ083-085-099-110500-
SOUTHEAST TENNESSEE

CITY           SKY/WX    TMP DP  RH WIND       PRES   REMARKS
CHATTANOOGA    MOCLDY    76  73  91 S3        30.13F
DAYTON         MOCLDY    72  72 100 CALM      30.12F
$$

SKY/WX REPORTED AS FAIR MEANS FEW OR NO CLOUDS BELOW
12 THOUSAND FEET.



ASUS44 KMEG 110410
RWRTN
TENNESSEE HOURLY STATE WEATHER ROUNDUP
NATIONAL WEATHER SERVICE MEMPHIS TN
1100 PM CDT WED AUG 10 2022

TNZ002-004-019-021-049-052-054-088>092-110500-
WEST TENNESSEE

CITY           SKY/WX    TMP DP  RH WIND       PRES   REMARKS
MEMPHIS INTL   MOCLDY    78  74  87 CALM      30.08S
JACKSON        PTCLDY    73  72  96 CALM      30.09S
DYERSBURG      CLEAR     73  32  22 NE5       30.09F
SOMERVILLE     CLOUDY    75  75 100 CALM      30.07S FOG
COVINGTON      CLEAR     73  73 100 CALM      30.08S
UNION CITY     CLOUDY    75  75 100 CALM      30.08F
BOLIVAR        CLOUDY    75  73  94 CALM      30.07F
PARIS          MOCLDY    72  72 100 CALM      30.09F
HUNTINGDON     CLEAR     72  72 100 CALM      30.08F
LEXINGTON      PTCLDY    73  72  94 CALM      30.09S
SELMER         PTCLDY    73  72  94 CALM      30.09S
SAVANNAH       MOCLDY    73  73 100 CALM      30.08S
$$

TNZ008-025-027-028-033-062-065-066-110500-
NORTH MIDDLE TENNESSEE

CITY           SKY/WX    TMP DP  RH WIND       PRES   REMARKS
NASHVILLE      MOCLDY    74  70  87 S6        30.11F
DICKSON        CLOUDY    72  72 100 SE3       30.10F FOG
PORTLAND       CLOUDY    73  73 100 S6        30.10F
CLARKSVILLE    MOCLDY    74  71  91 CALM      30.10S
LEBANON        CLEAR     73  72  94 S3        30.08F
SMYRNA         PTCLDY    73  72  96 SE3       30.12F
MURFREESBORO   PTCLDY    73  72  94 CALM      30.09F
COOKEVILLE     FOG       68  68 100 CALM      30.12F VSB 1/2
LIVINGSTON     CLEAR     70  68  94 CALM      30.13S
CROSSVILLE     PTCLDY    67  67 100 CALM      30.17F
$$

TNZ061-075-076-078-094-096-097-110500-
SOUTH MIDDLE TENNESSEE

CITY           SKY/WX    TMP DP  RH WIND       PRES   REMARKS
LAWRENCEBURG   MOCLDY    73  72  94 CALM      30.11S
LEWISBURG      CLOUDY    72  72 100 CALM      30.10S
FAYETTEVILLE   PTCLDY    72  72 100 SE5       30.14S
TULLAHOMA      CLOUDY    72  70  94 S6        30.12F
WINCHESTER     CLOUDY    73  73 100 CALM      30.13S
MCMINNVILLE    CLEAR     70  70 100 CALM      30.12S FOG
SHELBYVILLE    CLEAR     72  72 100 E3        30.11F
$$

TNZ017-018-042-046-047-110500-
NORTHEAST TENNESSEE

CITY           SKY/WX    TMP DP  RH WIND       PRES   REMARKS
TRI CITIES     CLOUDY    72  68  87 CALM      30.17F
ELIZABETHTON   CLOUDY    70  68  94 CALM      30.18S
GREENEVILLE    MOCLDY    70  68  94 CALM      30.17S
$$

TNZ012-013-036-069-073-074-110500-
CENTRAL EAST TENNESSEE

CITY           SKY/WX    TMP DP  RH WIND       PRES   REMARKS
KNOXVILLE      PTCLDY    73  71  93 W3        30.13F
OAK RIDGE      PTCLDY    72  70  93 CALM      30.15F
DOWNTOWN KNOXV   N/A     72  70  94 CALM      30.13F
GATLINBURG     CLOUDY    72  72 100 CALM      30.14F FOG
MORRISTOWN     CLOUDY    70  70 100 CALM      30.15S
JACKSBORO      CLOUDY    70  70 100 CALM      30.19S
$$

TNZ083-085-099-110500-
SOUTHEAST TENNESSEE

CITY           SKY/WX    TMP DP  RH WIND       PRES   REMARKS
CHATTANOOGA    MOCLDY    76  73  91 S3        30.13F
DAYTON         MOCLDY    72  72 100 CALM      30.12F
$$

SKY/WX REPORTED AS FAIR MEANS FEW OR NO CLOUDS BELOW
12 THOUSAND FEET.